Zurück zum Katalog

STARLINK-35061

AktivKommunikationVLEO
NORAD 66191·PAYLOAD·🇺🇸 United States

Gestartet Oct 26, 2025 von Cape Canaveral Space Force Station

Loading…

Nächste Überflüge (nächste 24 Stunden)

TLE

AktuellSource: CelesTrak SupGP

Epoche: Sep 15, 2026, 02:56 UTC

1 66191C 25243Q   26258.12270833 -.00023417  00000+0 -69190-3 0  2582
2 66191  53.1570  82.8961 0001151  87.3919 196.3850 15.34400895    17

Verfolge STARLINK-35061 in Echtzeit mit AllMySat

Download on the App Store